Powrót do katalogu

DMSP 5D-2 F13 DEB

AktywnySSO
NORAD 42300·DEBRIS·🇺🇸 United States

Wystrzelony Mar 24, 1995 z Vandenberg Space Force Base

Loading…

Następne Przeloty (najbliższe 24 godziny)

TLE

ŚwieżeSource: Space-Track

Epoka: Sep 14, 2026, 14:01 UTC

1 42300U 95015HS  26257.58448558  .00003247  00000-0  90918-3 0  9994
2 42300  98.5900 303.8581 0023579  21.4992 338.7185 14.46621262514057

Śledź DMSP 5D-2 F13 DEB w czasie rzeczywistym z AllMySat

Download on the App Store